{"data":{"norad_id":67451,"epoch":"2026-05-25T00:42:52.686144Z","epoch_age_seconds":82536,"freshness":"FRESH","line1":"1 67451U 26008G   26145.02977646  .00025716  00000+0  94008-3 0  9992","line2":"2 67451  42.9970 134.4277 0001224 225.9537 134.1214 15.27603604 21245","mean_motion":15.27603604,"eccentricity":0.0001224,"inclination_deg":42.997,"raan_deg":134.4277,"arg_perigee_deg":225.9537,"mean_anomaly_deg":134.1214,"bstar":0.00094008,"rev_number":2124,"period_min":94.265292136611,"perigee_km":482.13861755508,"apogee_km":483.81821860942,"semimajor_km":6861.1154180822,"source":"CELESTRAK","updated_at":"2026-05-25T13:38:21.560377Z"}}